Time,TemperatureF,DewpointF,PressureIn,WindDirection,WindDirectionDegrees,WindSpeedMPH,WindSpeedGustMPH,Humidity,HourlyPrecipIn,Conditions,Clouds,dailyrainin,SoftwareType,DateUTC
2013-08-18 00:01:00,56.2,54.0,29.87,NNW,337,3.5,4.0,96,0.00,,,0.00,Rainwise IP-100,2013-08-18 04:01:00,
2013-08-18 00:02:00,56.2,54.0,29.87,NNW,337,3.5,5.0,96,0.00,,,0.00,Rainwise IP-100,2013-08-18 04:02:00,
2013-08-18 00:05:00,56.2,55.0,29.86,NNW,337,3.7,5.0,97,0.00,,,0.00,Rainwise IP-100,2013-08-18 04:05:00,
2013-08-18 00:10:00,56.1,55.0,29.86,North,360,1.6,4.0,97,0.00,,,0.00,Rainwise IP-100,2013-08-18 04:10:00,
2013-08-18 00:15:00,56.0,55.0,29.87,NNW,337,2.3,4.0,97,0.00,,,0.00,Rainwise IP-100,2013-08-18 04:15:00,
2013-08-18 00:21:00,55.9,55.0,29.87,NNW,337,2.6,3.0,97,0.00,,,0.00,Rainwise IP-100,2013-08-18 04:21:00,
2013-08-18 00:26:00,55.9,55.0,29.87,NNW,337,0.0,4.0,97,0.00,,,0.00,Rainwise IP-100,2013-08-18 04:26:00,
2013-08-18 00:31:00,55.8,55.0,29.87,WNW,292,1.6,2.0,97,0.00,,,0.00,Rainwise IP-100,2013-08-18 04:31:00,
2013-08-18 00:36:00,55.8,55.0,29.87,WNW,292,0.0,1.0,97,0.00,,,0.00,Rainwise IP-100,2013-08-18 04:36:00,
2013-08-18 00:41:00,55.7,55.0,29.87,WNW,292,0.0,1.0,97,0.00,,,0.00,Rainwise IP-100,2013-08-18 04:41:00,
2013-08-18 00:46:00,55.6,55.0,29.87,NW,315,2.1,3.0,97,0.00,,,0.00,Rainwise IP-100,2013-08-18 04:46:00,
2013-08-18 00:51:00,55.6,55.0,29.87,NW,315,0.0,3.0,97,0.00,,,0.00,Rainwise IP-100,2013-08-18 04:51:00,
2013-08-18 00:56:00,55.6,55.0,29.87,WNW,292,1.2,3.0,97,0.00,,,0.00,Rainwise IP-100,2013-08-18 04:56:00,
2013-08-18 01:01:00,55.5,55.0,29.87,WSW,247,0.0,2.0,97,0.00,,,0.00,Rainwise IP-100,2013-08-18 05:01:00,
2013-08-18 01:06:00,55.5,55.0,29.87,NNW,337,1.6,2.0,97,0.00,,,0.00,Rainwise IP-100,2013-08-18 05:06:00,
2013-08-18 01:11:00,55.4,54.0,29.87,WNW,292,0.0,2.0,97,0.00,,,0.00,Rainwise IP-100,2013-08-18 05:11:00,
2013-08-18 01:16:00,55.3,54.0,29.87,WNW,292,0.0,0.0,97,0.00,,,0.00,Rainwise IP-100,2013-08-18 05:16:00,
2013-08-18 01:21:00,55.1,54.0,29.87,WNW,292,0.0,0.0,97,0.00,,,0.00,Rainwise IP-100,2013-08-18 05:21:00,
2013-08-18 01:26:00,54.9,54.0,29.87,WNW,292,0.0,0.0,97,0.00,,,0.00,Rainwise IP-100,2013-08-18 05:26:00,
2013-08-18 01:31:00,54.7,54.0,29.87,WNW,292,0.0,0.0,97,0.00,,,0.00,Rainwise IP-100,2013-08-18 05:31:00,
2013-08-18 01:37:00,54.6,54.0,29.87,NNW,337,2.8,0.0,98,0.00,,,0.00,Rainwise IP-100,2013-08-18 05:37:00,
2013-08-18 01:42:00,54.6,54.0,29.87,WNW,292,2.8,4.0,98,0.00,,,0.00,Rainwise IP-100,2013-08-18 05:42:00,
2013-08-18 01:47:00,54.7,54.0,29.86,NNW,337,1.4,3.0,98,0.00,,,0.00,Rainwise IP-100,2013-08-18 05:47:00,
2013-08-18 01:52:00,54.7,54.0,29.87,North,360,1.6,3.0,98,0.00,,,0.00,Rainwise IP-100,2013-08-18 05:52:00,
2013-08-18 01:57:00,54.7,54.0,29.86,WNW,292,0.0,2.0,98,0.00,,,0.00,Rainwise IP-100,2013-08-18 05:57:00,
2013-08-18 02:02:00,54.6,54.0,29.87,WNW,292,0.0,0.0,98,0.00,,,0.00,Rainwise IP-100,2013-08-18 06:02:00,
2013-08-18 02:07:00,54.5,54.0,29.87,WNW,292,0.0,0.0,98,0.00,,,0.00,Rainwise IP-100,2013-08-18 06:07:00,
2013-08-18 02:12:00,54.4,54.0,29.87,NW,315,0.0,4.0,98,0.00,,,0.00,Rainwise IP-100,2013-08-18 06:12:00,
2013-08-18 02:17:00,54.5,54.0,29.87,NNW,337,0.0,2.0,98,0.00,,,0.00,Rainwise IP-100,2013-08-18 06:17:00,
2013-08-18 02:22:00,54.5,54.0,29.87,NW,315,2.6,2.6,98,0.00,,,0.00,Rainwise IP-100,2013-08-18 06:22:00,
2013-08-18 02:27:00,54.5,54.0,29.86,NNW,337,1.2,3.0,98,0.00,,,0.00,Rainwise IP-100,2013-08-18 06:27:00,
2013-08-18 02:32:00,54.5,54.0,29.86,NNW,337,0.0,2.0,98,0.00,,,0.00,Rainwise IP-100,2013-08-18 06:32:00,
2013-08-18 02:37:00,54.5,54.0,29.86,NNW,337,1.9,1.9,99,0.00,,,0.00,Rainwise IP-100,2013-08-18 06:37:00,
2013-08-18 02:42:00,54.4,54.0,29.87,NNW,337,0.0,3.0,99,0.00,,,0.00,Rainwise IP-100,2013-08-18 06:42:00,
2013-08-18 02:47:00,54.2,53.0,29.87,NNW,337,1.6,3.0,98,0.00,,,0.00,Rainwise IP-100,2013-08-18 06:47:00,
2013-08-18 02:53:00,54.0,53.0,29.86,NNW,337,1.9,2.0,98,0.00,,,0.00,Rainwise IP-100,2013-08-18 06:53:00,
2013-08-18 02:58:00,53.9,53.0,29.87,NNW,337,0.0,2.0,98,0.00,,,0.00,Rainwise IP-100,2013-08-18 06:58:00,
2013-08-18 03:03:00,53.9,54.0,29.87,NNW,337,0.0,0.0,99,0.00,,,0.00,Rainwise IP-100,2013-08-18 07:03:00,
2013-08-18 03:08:00,53.8,53.0,29.87,NNW,337,0.0,0.0,99,0.00,,,0.00,Rainwise IP-100,2013-08-18 07:08:00,
2013-08-18 03:13:00,53.8,53.0,29.87,NNW,337,0.0,0.0,99,0.00,,,0.00,Rainwise IP-100,2013-08-18 07:13:00,
2013-08-18 03:18:00,53.8,53.0,29.87,WNW,292,0.0,0.0,99,0.00,,,0.00,Rainwise IP-100,2013-08-18 07:18:00,
2013-08-18 03:23:00,53.9,54.0,29.87,WNW,292,0.0,1.0,99,0.00,,,0.00,Rainwise IP-100,2013-08-18 07:23:00,
2013-08-18 03:28:00,54.0,54.0,29.87,WNW,292,1.2,1.2,99,0.00,,,0.00,Rainwise IP-100,2013-08-18 07:28:00,
2013-08-18 03:33:00,54.1,53.0,29.86,WNW,292,0.0,1.0,98,0.00,,,0.00,Rainwise IP-100,2013-08-18 07:33:00,
2013-08-18 03:38:00,54.1,53.0,29.86,WNW,292,0.0,1.0,98,0.00,,,0.00,Rainwise IP-100,2013-08-18 07:38:00,
2013-08-18 03:43:00,54.0,53.0,29.87,WNW,292,0.0,0.0,98,0.00,,,0.00,Rainwise IP-100,2013-08-18 07:43:00,
2013-08-18 03:48:00,53.7,53.0,29.87,WNW,292,0.0,0.0,98,0.00,,,0.00,Rainwise IP-100,2013-08-18 07:48:00,
2013-08-18 03:53:00,53.4,53.0,29.87,WNW,292,0.0,0.0,98,0.00,,,0.00,Rainwise IP-100,2013-08-18 07:53:00,
2013-08-18 03:58:00,53.1,52.0,29.87,WNW,292,0.0,0.0,98,0.00,,,0.00,Rainwise IP-100,2013-08-18 07:58:00,
2013-08-18 04:03:00,53.0,52.0,29.87,WNW,292,0.0,0.0,98,0.00,,,0.00,Rainwise IP-100,2013-08-18 08:03:00,
2013-08-18 04:09:00,52.9,52.0,29.86,WNW,292,0.0,0.0,98,0.00,,,0.00,Rainwise IP-100,2013-08-18 08:09:00,
2013-08-18 04:14:00,53.1,53.0,29.86,NW,315,1.4,2.0,99,0.00,,,0.00,Rainwise IP-100,2013-08-18 08:14:00,
2013-08-18 04:19:00,53.1,53.0,29.86,NNW,337,1.9,3.0,99,0.00,,,0.00,Rainwise IP-100,2013-08-18 08:19:00,
2013-08-18 04:24:00,53.1,53.0,29.86,NNW,337,0.0,3.0,99,0.00,,,0.00,Rainwise IP-100,2013-08-18 08:24:00,
2013-08-18 04:29:00,53.2,53.0,29.87,NNW,337,1.2,1.2,99,0.00,,,0.00,Rainwise IP-100,2013-08-18 08:29:00,
2013-08-18 04:34:00,53.3,53.0,29.87,NNW,337,0.0,1.0,99,0.00,,,0.00,Rainwise IP-100,2013-08-18 08:34:00,
2013-08-18 04:39:00,53.5,53.0,29.87,NW,315,1.4,2.0,100,0.00,,,0.00,Rainwise IP-100,2013-08-18 08:39:00,
2013-08-18 04:44:00,53.6,53.0,29.87,NW,315,0.0,2.0,100,0.00,,,0.00,Rainwise IP-100,2013-08-18 08:44:00,
2013-08-18 04:49:00,53.6,53.0,29.86,NW,315,0.0,1.0,100,0.00,,,0.00,Rainwise IP-100,2013-08-18 08:49:00,
2013-08-18 04:54:00,53.7,53.0,29.87,NNW,337,0.0,2.0,100,0.00,,,0.00,Rainwise IP-100,2013-08-18 08:54:00,
2013-08-18 04:59:00,53.7,53.0,29.86,NNW,337,1.2,1.2,100,0.00,,,0.00,Rainwise IP-100,2013-08-18 08:59:00,
2013-08-18 05:04:00,53.7,53.0,29.86,NW,315,1.6,3.0,100,0.00,,,0.00,Rainwise IP-100,2013-08-18 09:04:00,
2013-08-18 05:09:00,53.6,53.0,29.86,WNW,292,0.0,2.0,100,0.00,,,0.00,Rainwise IP-100,2013-08-18 09:09:00,
2013-08-18 05:14:00,53.6,53.0,29.86,NNW,337,0.0,2.0,100,0.00,,,0.00,Rainwise IP-100,2013-08-18 09:14:00,
2013-08-18 05:19:00,53.6,53.0,29.87,NNW,337,0.0,1.0,100,0.00,,,0.00,Rainwise IP-100,2013-08-18 09:19:00,
2013-08-18 05:25:00,53.5,53.0,29.87,NNW,337,1.9,1.9,100,0.00,,,0.00,Rainwise IP-100,2013-08-18 09:25:00,
2013-08-18 05:30:00,53.4,53.0,29.87,NNW,337,1.4,2.0,100,0.00,,,0.00,Rainwise IP-100,2013-08-18 09:30:00,
2013-08-18 05:35:00,53.3,53.0,29.87,NNW,337,1.9,2.0,100,0.00,,,0.00,Rainwise IP-100,2013-08-18 09:35:00,
2013-08-18 05:40:00,53.3,53.0,29.87,NNW,337,0.0,2.0,100,0.00,,,0.00,Rainwise IP-100,2013-08-18 09:40:00,
2013-08-18 05:45:00,53.3,53.0,29.87,NNW,337,0.0,1.0,100,0.00,,,0.00,Rainwise IP-100,2013-08-18 09:45:00,
2013-08-18 05:50:00,53.3,53.0,29.87,NNW,337,1.4,1.4,100,0.00,,,0.00,Rainwise IP-100,2013-08-18 09:50:00,
2013-08-18 05:55:00,53.2,53.0,29.87,NNW,337,0.0,1.0,100,0.00,,,0.00,Rainwise IP-100,2013-08-18 09:55:00,
2013-08-18 06:00:00,53.3,53.0,29.88,NNW,337,0.0,1.0,100,0.00,,,0.00,Rainwise IP-100,2013-08-18 10:00:00,
2013-08-18 06:05:00,53.3,53.0,29.87,NNW,337,0.0,1.0,100,0.00,,,0.00,Rainwise IP-100,2013-08-18 10:05:00,
2013-08-18 06:10:00,53.3,53.0,29.88,NNW,337,0.0,1.0,100,0.00,,,0.00,Rainwise IP-100,2013-08-18 10:10:00,
2013-08-18 06:15:00,53.4,53.0,29.88,NNW,337,0.0,3.0,100,0.00,,,0.00,Rainwise IP-100,2013-08-18 10:15:00,
2013-08-18 06:20:00,53.4,53.0,29.88,WNW,292,0.0,3.0,100,0.00,,,0.00,Rainwise IP-100,2013-08-18 10:20:00,
2013-08-18 06:25:00,53.5,53.0,29.87,NNW,337,0.0,2.0,100,0.00,,,0.00,Rainwise IP-100,2013-08-18 10:25:00,
2013-08-18 06:30:00,53.5,53.0,29.88,NNW,337,1.4,2.0,100,0.00,,,0.00,Rainwise IP-100,2013-08-18 10:30:00,
2013-08-18 06:35:00,53.5,53.0,29.88,NNW,337,1.2,2.0,100,0.00,,,0.00,Rainwise IP-100,2013-08-18 10:35:00,
2013-08-18 06:41:00,53.5,53.0,29.88,NNW,337,0.0,2.0,100,0.00,,,0.00,Rainwise IP-100,2013-08-18 10:41:00,
2013-08-18 06:46:00,53.5,53.0,29.88,NNW,337,2.3,3.0,100,0.00,,,0.00,Rainwise IP-100,2013-08-18 10:46:00,
2013-08-18 06:51:00,53.6,53.0,29.88,NNW,337,2.8,4.0,100,0.00,,,0.00,Rainwise IP-100,2013-08-18 10:51:00,
2013-08-18 06:56:00,53.6,53.0,29.87,North,360,3.0,4.0,100,0.00,,,0.00,Rainwise IP-100,2013-08-18 10:56:00,
2013-08-18 07:01:00,53.6,53.0,29.87,NNW,337,4.2,4.2,100,0.00,,,0.00,Rainwise IP-100,2013-08-18 11:01:00,
2013-08-18 07:06:00,53.7,53.0,29.87,NNW,337,2.8,4.0,100,0.00,,,0.00,Rainwise IP-100,2013-08-18 11:06:00,
2013-08-18 07:11:00,53.9,54.0,29.87,NNW,337,2.1,4.0,100,0.00,,,0.00,Rainwise IP-100,2013-08-18 11:11:00,
2013-08-18 07:16:00,54.0,54.0,29.87,NNW,337,2.1,3.0,100,0.00,,,0.00,Rainwise IP-100,2013-08-18 11:16:00,
2013-08-18 07:21:00,53.9,54.0,29.87,NW,315,0.0,3.0,100,0.00,,,0.00,Rainwise IP-100,2013-08-18 11:21:00,
2013-08-18 07:26:00,54.0,54.0,29.87,NW,315,0.0,1.0,100,0.00,,,0.00,Rainwise IP-100,2013-08-18 11:26:00,
2013-08-18 07:31:00,54.2,54.0,29.87,NNW,337,1.2,2.0,100,0.00,,,0.00,Rainwise IP-100,2013-08-18 11:31:00,
2013-08-18 07:36:00,54.4,54.0,29.87,NNW,337,2.1,2.1,100,0.00,,,0.00,Rainwise IP-100,2013-08-18 11:36:00,
2013-08-18 07:41:00,54.6,54.0,29.87,NW,315,1.2,2.0,100,0.00,,,0.00,Rainwise IP-100,2013-08-18 11:41:00,
2013-08-18 07:46:00,54.6,54.0,29.88,South,180,0.0,2.0,100,0.00,,,0.00,Rainwise IP-100,2013-08-18 11:46:00,
2013-08-18 07:51:00,54.7,54.0,29.88,SSE,157,0.0,0.0,100,0.00,,,0.00,Rainwise IP-100,2013-08-18 11:51:00,
2013-08-18 07:57:00,55.1,55.0,29.88,North,360,0.0,2.0,100,0.00,,,0.00,Rainwise IP-100,2013-08-18 11:57:00,
2013-08-18 08:02:00,55.4,55.0,29.87,SSE,157,0.0,0.0,100,0.00,,,0.00,Rainwise IP-100,2013-08-18 12:02:00,
2013-08-18 08:07:00,55.8,56.0,29.88,SSW,202,1.2,2.0,99,0.00,,,0.00,Rainwise IP-100,2013-08-18 12:07:00,
2013-08-18 08:12:00,56.0,56.0,29.88,WSW,247,0.0,2.0,99,0.00,,,0.00,Rainwise IP-100,2013-08-18 12:12:00,
2013-08-18 08:17:00,56.2,56.0,29.88,WSW,247,0.0,1.0,99,0.00,,,0.00,Rainwise IP-100,2013-08-18 12:17:00,
2013-08-18 08:22:00,56.4,56.0,29.87,SW,225,1.4,2.0,99,0.00,,,0.00,Rainwise IP-100,2013-08-18 12:22:00,
2013-08-18 08:27:00,56.7,56.0,29.87,SW,225,1.6,2.0,99,0.00,,,0.00,Rainwise IP-100,2013-08-18 12:27:00,
2013-08-18 08:32:00,57.1,57.0,29.87,SSE,157,0.0,1.0,99,0.00,,,0.00,Rainwise IP-100,2013-08-18 12:32:00,
2013-08-18 08:37:00,57.6,57.0,29.87,ENE,67,0.0,2.0,99,0.00,,,0.00,Rainwise IP-100,2013-08-18 12:37:00,
2013-08-18 08:42:00,58.0,58.0,29.87,SSE,157,0.0,2.0,99,0.00,,,0.00,Rainwise IP-100,2013-08-18 12:42:00,
2013-08-18 08:47:00,58.4,58.0,29.87,SSW,202,2.8,2.8,100,0.00,,,0.00,Rainwise IP-100,2013-08-18 12:47:00,
2013-08-18 08:52:00,58.7,59.0,29.87,SSE,157,2.6,3.0,100,0.00,,,0.00,Rainwise IP-100,2013-08-18 12:52:00,
2013-08-18 08:57:00,58.4,58.0,29.87,SSW,202,2.1,4.0,99,0.00,,,0.00,Rainwise IP-100,2013-08-18 12:57:00,
2013-08-18 09:02:00,58.7,58.0,29.87,SSE,157,2.6,4.0,97,0.00,,,0.00,Rainwise IP-100,2013-08-18 13:02:00,
2013-08-18 09:07:00,59.2,58.0,29.87,SW,225,1.6,3.0,97,0.00,,,0.00,Rainwise IP-100,2013-08-18 13:07:00,
2013-08-18 09:13:00,60.0,59.0,29.86,ESE,112,0.0,1.0,98,0.00,,,0.00,Rainwise IP-100,2013-08-18 13:13:00,
2013-08-18 09:18:00,60.7,60.0,29.86,SSW,202,0.0,3.0,98,0.00,,,0.00,Rainwise IP-100,2013-08-18 13:18:00,
2013-08-18 09:23:00,61.3,60.0,29.86,ESE,112,0.0,2.0,98,0.00,,,0.00,Rainwise IP-100,2013-08-18 13:23:00,
2013-08-18 09:28:00,61.8,60.0,29.86,SSE,157,0.0,2.0,97,0.00,,,0.00,Rainwise IP-100,2013-08-18 13:28:00,
2013-08-18 09:33:00,62.4,61.0,29.86,SSW,202,0.0,2.0,96,0.00,,,0.00,Rainwise IP-100,2013-08-18 13:33:00,
2013-08-18 09:38:00,62.9,61.0,29.86,SW,225,0.0,2.0,94,0.00,,,0.00,Rainwise IP-100,2013-08-18 13:38:00,
2013-08-18 09:43:00,63.5,61.0,29.86,ENE,67,0.0,2.0,92,0.00,,,0.00,Rainwise IP-100,2013-08-18 13:43:00,
2013-08-18 09:48:00,64.0,61.0,29.86,SSE,157,1.6,3.0,90,0.00,,,0.00,Rainwise IP-100,2013-08-18 13:48:00,
2013-08-18 09:53:00,64.4,61.0,29.86,SSE,157,0.0,3.0,88,0.00,,,0.00,Rainwise IP-100,2013-08-18 13:53:00,
2013-08-18 09:58:00,65.1,60.0,29.86,SSE,157,0.0,2.0,86,0.00,,,0.00,Rainwise IP-100,2013-08-18 13:58:00,
2013-08-18 10:03:00,66.0,61.0,29.86,SSW,202,0.0,4.0,85,0.00,,,0.00,Rainwise IP-100,2013-08-18 14:03:00,
2013-08-18 10:08:00,66.3,61.0,29.85,ENE,67,0.0,3.0,83,0.00,,,0.00,Rainwise IP-100,2013-08-18 14:08:00,
2013-08-18 10:13:00,66.1,60.0,29.85,ESE,112,0.0,2.0,81,0.00,,,0.00,Rainwise IP-100,2013-08-18 14:13:00,
2013-08-18 10:18:00,66.9,61.0,29.86,South,180,1.6,2.0,80,0.00,,,0.00,Rainwise IP-100,2013-08-18 14:18:00,
2013-08-18 10:23:00,67.1,60.0,29.85,NE,45,0.0,2.0,78,0.00,,,0.00,Rainwise IP-100,2013-08-18 14:23:00,
2013-08-18 10:29:00,66.1,59.0,29.86,ENE,67,3.3,3.3,78,0.00,,,0.00,Rainwise IP-100,2013-08-18 14:29:00,
2013-08-18 10:34:00,64.9,57.0,29.85,NNE,22,1.9,4.0,78,0.00,,,0.00,Rainwise IP-100,2013-08-18 14:34:00,
2013-08-18 10:39:00,65.6,58.0,29.85,SSE,157,1.6,2.0,78,0.00,,,0.00,Rainwise IP-100,2013-08-18 14:39:00,
2013-08-18 10:44:00,67.2,60.0,29.85,SW,225,0.0,2.0,77,0.00,,,0.00,Rainwise IP-100,2013-08-18 14:44:00,
2013-08-18 10:49:00,68.1,60.0,29.85,ESE,112,0.0,1.0,77,0.00,,,0.00,Rainwise IP-100,2013-08-18 14:49:00,
2013-08-18 10:54:00,68.9,61.0,29.85,SSW,202,0.0,3.0,76,0.00,,,0.00,Rainwise IP-100,2013-08-18 14:54:00,
2013-08-18 10:59:00,69.4,61.0,29.85,SSW,202,1.2,3.0,75,0.00,,,0.00,Rainwise IP-100,2013-08-18 14:59:00,
2013-08-18 11:04:00,69.8,61.0,29.85,SSE,157,2.6,3.0,74,0.00,,,0.00,Rainwise IP-100,2013-08-18 15:04:00,
2013-08-18 11:09:00,69.7,60.0,29.85,SW,225,0.0,3.0,72,0.00,,,0.00,Rainwise IP-100,2013-08-18 15:09:00,
2013-08-18 11:14:00,69.8,60.0,29.85,SSE,157,0.0,2.0,72,0.00,,,0.00,Rainwise IP-100,2013-08-18 15:14:00,
2013-08-18 11:19:00,70.3,60.0,29.85,SW,225,2.8,3.0,71,0.00,,,0.00,Rainwise IP-100,2013-08-18 15:19:00,
2013-08-18 11:24:00,70.4,60.0,29.84,SSW,202,0.0,2.0,71,0.00,,,0.00,Rainwise IP-100,2013-08-18 15:24:00,
2013-08-18 11:29:00,70.5,60.0,29.84,SSW,202,1.4,1.4,71,0.00,,,0.00,Rainwise IP-100,2013-08-18 15:29:00,
2013-08-18 11:34:00,71.1,60.0,29.84,SSE,157,0.0,2.0,70,0.00,,,0.00,Rainwise IP-100,2013-08-18 15:34:00,
2013-08-18 11:39:00,71.4,60.0,29.83,SSE,157,0.0,2.0,69,0.00,,,0.00,Rainwise IP-100,2013-08-18 15:39:00,
2013-08-18 11:45:00,71.6,60.0,29.83,SSW,202,1.9,3.0,68,0.00,,,0.00,Rainwise IP-100,2013-08-18 15:45:00,
2013-08-18 11:50:00,71.5,60.0,29.83,SSW,202,2.1,3.0,68,0.00,,,0.00,Rainwise IP-100,2013-08-18 15:50:00,
2013-08-18 11:55:00,71.3,61.0,29.83,SW,225,1.9,3.0,70,0.00,,,0.00,Rainwise IP-100,2013-08-18 15:55:00,
2013-08-18 12:00:00,71.2,61.0,29.83,WSW,247,2.3,4.0,71,0.00,,,0.00,Rainwise IP-100,2013-08-18 16:00:00,
2013-08-18 12:05:00,71.0,61.0,29.83,WNW,292,0.0,2.0,71,0.00,,,0.00,Rainwise IP-100,2013-08-18 16:05:00,
2013-08-18 12:10:00,71.4,61.0,29.82,WSW,247,0.0,2.0,71,0.00,,,0.00,Rainwise IP-100,2013-08-18 16:10:00,
2013-08-18 12:15:00,72.2,62.0,29.82,SW,225,3.0,3.0,70,0.00,,,0.00,Rainwise IP-100,2013-08-18 16:15:00,
2013-08-18 12:20:00,72.4,61.0,29.82,WSW,247,1.6,3.0,69,0.00,,,0.00,Rainwise IP-100,2013-08-18 16:20:00,
2013-08-18 12:25:00,72.2,61.0,29.81,WSW,247,1.9,2.0,69,0.00,,,0.00,Rainwise IP-100,2013-08-18 16:25:00,
2013-08-18 12:30:00,72.7,62.0,29.81,SSE,157,0.0,2.0,70,0.00,,,0.00,Rainwise IP-100,2013-08-18 16:30:00,
2013-08-18 12:35:00,73.9,63.0,29.81,SSE,157,0.0,2.0,69,0.00,,,0.00,Rainwise IP-100,2013-08-18 16:35:00,
2013-08-18 12:40:00,74.4,63.0,29.81,South,180,1.2,2.0,68,0.00,,,0.00,Rainwise IP-100,2013-08-18 16:40:00,
2013-08-18 12:45:00,74.7,63.0,29.80,SSE,157,0.0,3.0,67,0.00,,,0.00,Rainwise IP-100,2013-08-18 16:45:00,
2013-08-18 12:50:00,75.0,62.0,29.80,SSE,157,1.2,3.0,65,0.00,,,0.00,Rainwise IP-100,2013-08-18 16:50:00,
2013-08-18 12:55:00,74.9,62.0,29.80,SSW,202,1.2,2.0,64,0.00,,,0.00,Rainwise IP-100,2013-08-18 16:55:00,
2013-08-18 13:01:00,75.1,62.0,29.80,WSW,247,1.4,2.0,64,0.00,,,0.00,Rainwise IP-100,2013-08-18 17:01:00,
2013-08-18 13:06:00,75.5,63.0,29.80,SSW,202,1.4,2.0,65,0.00,,,0.00,Rainwise IP-100,2013-08-18 17:06:00,
2013-08-18 13:11:00,75.6,63.0,29.80,SW,225,1.9,3.0,66,0.00,,,0.00,Rainwise IP-100,2013-08-18 17:11:00,
2013-08-18 13:16:00,75.6,63.0,29.80,SSW,202,2.3,3.0,66,0.00,,,0.00,Rainwise IP-100,2013-08-18 17:16:00,
2013-08-18 13:21:00,75.5,63.0,29.79,WSW,247,1.6,3.0,66,0.00,,,0.00,Rainwise IP-100,2013-08-18 17:21:00,
2013-08-18 13:26:00,75.5,63.0,29.79,SW,225,3.7,4.0,65,0.00,,,0.00,Rainwise IP-100,2013-08-18 17:26:00,
2013-08-18 13:31:00,75.2,62.0,29.79,SSE,157,4.4,4.4,65,0.00,,,0.00,Rainwise IP-100,2013-08-18 17:31:00,
2013-08-18 13:36:00,74.9,62.0,29.79,SSW,202,1.2,5.0,65,0.00,,,0.00,Rainwise IP-100,2013-08-18 17:36:00,
2013-08-18 13:41:00,75.1,62.0,29.79,SSE,157,3.5,3.5,65,0.00,,,0.00,Rainwise IP-100,2013-08-18 17:41:00,
2013-08-18 13:46:00,75.6,63.0,29.79,SSE,157,1.9,3.0,66,0.00,,,0.00,Rainwise IP-100,2013-08-18 17:46:00,
2013-08-18 13:51:00,75.9,63.0,29.78,SSE,157,0.0,2.0,65,0.00,,,0.00,Rainwise IP-100,2013-08-18 17:51:00,
2013-08-18 13:56:00,76.2,63.0,29.78,SSE,157,4.2,4.2,65,0.00,,,0.00,Rainwise IP-100,2013-08-18 17:56:00,
2013-08-18 14:01:00,76.2,63.0,29.78,SSW,202,0.0,4.0,64,0.00,,,0.00,Rainwise IP-100,2013-08-18 18:01:00,
2013-08-18 14:06:00,76.1,62.0,29.78,SSW,202,2.3,4.0,63,0.00,,,0.00,Rainwise IP-100,2013-08-18 18:06:00,
2013-08-18 14:11:00,76.2,63.0,29.77,SSW,202,4.4,4.4,64,0.00,,,0.00,Rainwise IP-100,2013-08-18 18:11:00,
2013-08-18 14:17:00,76.0,63.0,29.77,SSE,157,1.6,4.0,64,0.00,,,0.00,Rainwise IP-100,2013-08-18 18:17:00,
2013-08-18 14:22:00,75.8,62.0,29.77,SSW,202,1.9,4.0,64,0.00,,,0.00,Rainwise IP-100,2013-08-18 18:22:00,
2013-08-18 14:27:00,75.7,63.0,29.77,SW,225,3.3,4.0,65,0.00,,,0.00,Rainwise IP-100,2013-08-18 18:27:00,
2013-08-18 14:32:00,75.6,63.0,29.76,SSW,202,2.1,4.0,65,0.00,,,0.00,Rainwise IP-100,2013-08-18 18:32:00,
2013-08-18 14:37:00,75.7,63.0,29.76,SSW,202,3.3,4.0,65,0.00,,,0.00,Rainwise IP-100,2013-08-18 18:37:00,
2013-08-18 14:42:00,76.0,63.0,29.76,SSW,202,2.8,4.0,65,0.00,,,0.00,Rainwise IP-100,2013-08-18 18:42:00,
2013-08-18 14:47:00,76.3,63.0,29.76,NNW,337,0.0,3.0,64,0.00,,,0.00,Rainwise IP-100,2013-08-18 18:47:00,
2013-08-18 14:52:00,76.9,63.0,29.75,WSW,247,0.0,4.0,62,0.00,,,0.00,Rainwise IP-100,2013-08-18 18:52:00,
2013-08-18 14:57:00,77.5,63.0,29.75,WSW,247,1.6,4.0,60,0.00,,,0.00,Rainwise IP-100,2013-08-18 18:57:00,
2013-08-18 15:02:00,77.9,62.0,29.75,SSW,202,0.0,3.0,59,0.00,,,0.00,Rainwise IP-100,2013-08-18 19:02:00,
2013-08-18 15:07:00,78.3,63.0,29.74,SSE,157,0.0,3.0,59,0.00,,,0.00,Rainwise IP-100,2013-08-18 19:07:00,
2013-08-18 15:12:00,78.6,63.0,29.75,SSE,157,2.3,2.3,59,0.00,,,0.00,Rainwise IP-100,2013-08-18 19:12:00,
2013-08-18 15:17:00,78.6,62.0,29.74,SSE,157,1.9,3.0,58,0.00,,,0.00,Rainwise IP-100,2013-08-18 19:17:00,
2013-08-18 15:22:00,78.4,62.0,29.74,SSE,157,1.2,4.0,58,0.00,,,0.00,Rainwise IP-100,2013-08-18 19:22:00,
2013-08-18 15:27:00,78.1,62.0,29.73,SSW,202,3.7,4.0,58,0.00,,,0.00,Rainwise IP-100,2013-08-18 19:27:00,
2013-08-18 15:33:00,77.4,62.0,29.74,South,180,2.6,6.0,59,0.00,,,0.00,Rainwise IP-100,2013-08-18 19:33:00,
2013-08-18 15:38:00,77.0,62.0,29.74,SW,225,0.0,6.0,60,0.00,,,0.00,Rainwise IP-100,2013-08-18 19:38:00,
2013-08-18 15:43:00,77.3,63.0,29.73,SW,225,3.3,3.3,61,0.00,,,0.00,Rainwise IP-100,2013-08-18 19:43:00,
2013-08-18 15:48:00,77.5,64.0,29.73,SSE,157,0.0,3.0,62,0.00,,,0.00,Rainwise IP-100,2013-08-18 19:48:00,
2013-08-18 15:53:00,77.6,64.0,29.73,SSW,202,3.3,4.0,62,0.00,,,0.00,Rainwise IP-100,2013-08-18 19:53:00,
2013-08-18 15:58:00,77.4,63.0,29.72,SSW,202,4.0,5.0,62,0.00,,,0.00,Rainwise IP-100,2013-08-18 19:58:00,
2013-08-18 16:03:00,77.2,63.0,29.73,SSW,202,0.0,4.0,61,0.00,,,0.00,Rainwise IP-100,2013-08-18 20:03:00,
2013-08-18 16:08:00,77.5,64.0,29.72,SSW,202,3.3,4.0,62,0.00,,,0.00,Rainwise IP-100,2013-08-18 20:08:00,
2013-08-18 16:13:00,77.6,63.0,29.72,SSW,202,4.0,4.0,61,0.00,,,0.00,Rainwise IP-100,2013-08-18 20:13:00,
2013-08-18 16:18:00,77.4,62.0,29.72,SSW,202,2.6,4.0,60,0.00,,,0.00,Rainwise IP-100,2013-08-18 20:18:00,
2013-08-18 16:23:00,77.1,62.0,29.72,SSW,202,3.5,4.0,61,0.00,,,0.00,Rainwise IP-100,2013-08-18 20:23:00,
2013-08-18 16:28:00,76.7,63.0,29.72,SSW,202,4.0,6.0,62,0.00,,,0.00,Rainwise IP-100,2013-08-18 20:28:00,
2013-08-18 16:33:00,76.5,62.0,29.72,SSW,202,4.2,6.0,62,0.00,,,0.00,Rainwise IP-100,2013-08-18 20:33:00,
2013-08-18 16:38:00,76.3,62.0,29.72,SSW,202,1.9,4.0,61,0.00,,,0.00,Rainwise IP-100,2013-08-18 20:38:00,
2013-08-18 16:43:00,76.0,61.0,29.71,WSW,247,2.3,4.0,61,0.00,,,0.00,Rainwise IP-100,2013-08-18 20:43:00,
2013-08-18 16:49:00,75.9,61.0,29.72,South,180,2.1,5.0,61,0.00,,,0.00,Rainwise IP-100,2013-08-18 20:49:00,
2013-08-18 16:54:00,75.9,61.0,29.71,SSW,202,1.4,4.0,61,0.00,,,0.00,Rainwise IP-100,2013-08-18 20:54:00,
2013-08-18 16:59:00,75.7,61.0,29.71,WSW,247,0.0,4.0,61,0.00,,,0.00,Rainwise IP-100,2013-08-18 20:59:00,
2013-08-18 17:04:00,75.5,61.0,29.71,WSW,247,1.2,2.0,62,0.00,,,0.00,Rainwise IP-100,2013-08-18 21:04:00,
2013-08-18 17:09:00,75.4,62.0,29.71,SW,225,0.0,1.0,64,0.00,,,0.00,Rainwise IP-100,2013-08-18 21:09:00,
2013-08-18 17:14:00,75.1,61.0,29.71,SSW,202,1.9,4.0,63,0.00,,,0.00,Rainwise IP-100,2013-08-18 21:14:00,
2013-08-18 17:19:00,74.9,61.0,29.71,SSW,202,0.0,2.0,63,0.00,,,0.00,Rainwise IP-100,2013-08-18 21:19:00,
2013-08-18 17:24:00,74.8,62.0,29.71,SSW,202,0.0,1.0,65,0.00,,,0.00,Rainwise IP-100,2013-08-18 21:24:00,
2013-08-18 17:29:00,74.9,63.0,29.71,SSW,202,0.0,1.0,66,0.00,,,0.00,Rainwise IP-100,2013-08-18 21:29:00,
2013-08-18 17:34:00,75.0,63.0,29.70,SSW,202,0.0,0.0,66,0.00,,,0.00,Rainwise IP-100,2013-08-18 21:34:00,
2013-08-18 17:39:00,75.1,63.0,29.70,SSW,202,0.0,0.0,66,0.00,,,0.00,Rainwise IP-100,2013-08-18 21:39:00,
2013-08-18 17:44:00,75.1,63.0,29.70,SSW,202,1.6,2.0,66,0.00,,,0.00,Rainwise IP-100,2013-08-18 21:44:00,
2013-08-18 17:49:00,74.7,62.0,29.70,SSW,202,0.0,2.0,66,0.00,,,0.00,Rainwise IP-100,2013-08-18 21:49:00,
2013-08-18 17:54:00,74.0,62.0,29.70,SSW,202,1.2,1.2,66,0.00,,,0.00,Rainwise IP-100,2013-08-18 21:54:00,
2013-08-18 17:59:00,73.4,62.0,29.70,SSW,202,2.1,2.1,68,0.00,,,0.00,Rainwise IP-100,2013-08-18 21:59:00,
2013-08-18 18:05:00,73.0,62.0,29.70,SSW,202,1.4,2.0,70,0.00,,,0.00,Rainwise IP-100,2013-08-18 22:05:00,
2013-08-18 18:10:00,72.5,62.0,29.70,SSW,202,0.0,1.0,70,0.00,,,0.00,Rainwise IP-100,2013-08-18 22:10:00,
2013-08-18 18:15:00,72.3,61.0,29.70,SSW,202,0.0,1.0,69,0.00,,,0.00,Rainwise IP-100,2013-08-18 22:15:00,
2013-08-18 18:20:00,72.1,61.0,29.70,SSW,202,1.4,1.4,70,0.00,,,0.00,Rainwise IP-100,2013-08-18 22:20:00,
2013-08-18 18:25:00,71.7,61.0,29.70,SSW,202,1.4,2.0,71,0.00,,,0.00,Rainwise IP-100,2013-08-18 22:25:00,
2013-08-18 18:30:00,71.5,62.0,29.70,SSW,202,1.4,2.0,73,0.00,,,0.00,Rainwise IP-100,2013-08-18 22:30:00,
2013-08-18 18:35:00,71.3,62.0,29.69,SSW,202,1.6,1.6,74,0.00,,,0.00,Rainwise IP-100,2013-08-18 22:35:00,
2013-08-18 18:40:00,70.9,63.0,29.69,SSW,202,1.4,2.0,76,0.00,,,0.00,Rainwise IP-100,2013-08-18 22:40:00,
2013-08-18 18:45:00,70.6,63.0,29.70,SSW,202,1.4,1.4,77,0.00,,,0.00,Rainwise IP-100,2013-08-18 22:45:00,
2013-08-18 18:50:00,70.3,63.0,29.70,SSW,202,0.0,1.0,78,0.00,,,0.00,Rainwise IP-100,2013-08-18 22:50:00,
2013-08-18 18:55:00,69.9,63.0,29.69,SSW,202,1.2,1.2,78,0.00,,,0.00,Rainwise IP-100,2013-08-18 22:55:00,
2013-08-18 19:00:00,69.6,63.0,29.70,SSW,202,0.0,1.0,80,0.00,,,0.00,Rainwise IP-100,2013-08-18 23:00:00,
2013-08-18 19:05:00,69.2,63.0,29.69,SSW,202,0.0,0.0,80,0.00,,,0.00,Rainwise IP-100,2013-08-18 23:05:00,
2013-08-18 19:10:00,69.0,62.0,29.69,SSW,202,0.0,0.0,79,0.00,,,0.00,Rainwise IP-100,2013-08-18 23:10:00,
2013-08-18 19:15:00,68.6,62.0,29.70,SSW,202,0.0,0.0,80,0.00,,,0.00,Rainwise IP-100,2013-08-18 23:15:00,
2013-08-18 19:21:00,68.3,61.0,29.69,SSW,202,0.0,0.0,80,0.00,,,0.00,Rainwise IP-100,2013-08-18 23:21:00,
2013-08-18 19:26:00,68.0,62.0,29.70,SSW,202,0.0,0.0,81,0.00,,,0.00,Rainwise IP-100,2013-08-18 23:26:00,
2013-08-18 19:31:00,67.7,62.0,29.70,SSW,202,0.0,0.0,82,0.00,,,0.00,Rainwise IP-100,2013-08-18 23:31:00,
2013-08-18 19:36:00,67.4,62.0,29.70,SSW,202,1.4,1.4,83,0.00,,,0.00,Rainwise IP-100,2013-08-18 23:36:00,
2013-08-18 19:41:00,67.0,62.0,29.70,SSW,202,1.2,1.2,85,0.00,,,0.00,Rainwise IP-100,2013-08-18 23:41:00,
2013-08-18 19:46:00,66.8,62.0,29.70,SSW,202,0.0,1.0,85,0.00,,,0.00,Rainwise IP-100,2013-08-18 23:46:00,
2013-08-18 19:51:00,66.6,62.0,29.70,SSW,202,1.2,1.2,86,0.00,,,0.00,Rainwise IP-100,2013-08-18 23:51:00,
2013-08-18 19:56:00,66.3,62.0,29.70,SSW,202,0.0,1.0,86,0.00,,,0.00,Rainwise IP-100,2013-08-18 23:56:00,
2013-08-18 20:01:00,66.1,62.0,29.70,SSW,202,0.0,0.0,87,0.00,,,0.00,Rainwise IP-100,2013-08-19 00:01:00,
2013-08-18 20:06:00,65.8,61.0,29.70,SSW,202,1.2,0.0,87,0.00,,,0.00,Rainwise IP-100,2013-08-19 00:06:00,
2013-08-18 20:11:00,65.5,61.0,29.70,SSW,202,2.1,2.1,88,0.00,,,0.00,Rainwise IP-100,2013-08-19 00:11:00,
2013-08-18 20:16:00,65.3,62.0,29.70,SSW,202,0.0,2.0,90,0.00,,,0.00,Rainwise IP-100,2013-08-19 00:16:00,
2013-08-18 20:21:00,65.0,62.0,29.70,SSW,202,0.0,0.0,90,0.00,,,0.00,Rainwise IP-100,2013-08-19 00:21:00,
2013-08-18 20:26:00,64.7,62.0,29.70,SSW,202,0.0,1.0,91,0.00,,,0.00,Rainwise IP-100,2013-08-19 00:26:00,
2013-08-18 20:31:00,64.5,62.0,29.70,SSW,202,0.0,0.0,92,0.00,,,0.00,Rainwise IP-100,2013-08-19 00:31:00,
2013-08-18 20:37:00,64.1,61.0,29.70,SSW,202,0.0,1.0,92,0.00,,,0.00,Rainwise IP-100,2013-08-19 00:37:00,
2013-08-18 20:42:00,63.8,61.0,29.70,SSW,202,0.0,1.0,92,0.00,,,0.00,Rainwise IP-100,2013-08-19 00:42:00,
2013-08-18 20:47:00,63.5,61.0,29.70,SSW,202,0.0,1.0,93,0.00,,,0.00,Rainwise IP-100,2013-08-19 00:47:00,
2013-08-18 20:52:00,63.3,61.0,29.70,SSW,202,1.6,1.6,93,0.00,,,0.00,Rainwise IP-100,2013-08-19 00:52:00,
2013-08-18 20:57:00,63.1,61.0,29.70,SSW,202,0.0,2.0,93,0.00,,,0.00,Rainwise IP-100,2013-08-19 00:57:00,
2013-08-18 21:02:00,62.9,61.0,29.70,SSW,202,0.0,1.0,93,0.00,,,0.00,Rainwise IP-100,2013-08-19 01:02:00,
2013-08-18 21:07:00,62.8,60.0,29.70,SSW,202,0.0,1.0,93,0.00,,,0.00,Rainwise IP-100,2013-08-19 01:07:00,
2013-08-18 21:12:00,62.6,60.0,29.70,SSW,202,0.0,0.0,93,0.00,,,0.00,Rainwise IP-100,2013-08-19 01:12:00,
2013-08-18 21:17:00,62.5,60.0,29.70,NW,315,1.9,2.0,93,0.00,,,0.00,Rainwise IP-100,2013-08-19 01:17:00,
2013-08-18 21:22:00,62.3,60.0,29.69,WNW,292,0.0,2.0,93,0.00,,,0.00,Rainwise IP-100,2013-08-19 01:22:00,
2013-08-18 21:27:00,62.2,60.0,29.70,WNW,292,0.0,0.0,93,0.00,,,0.00,Rainwise IP-100,2013-08-19 01:27:00,
2013-08-18 21:32:00,62.1,60.0,29.69,WNW,292,0.0,1.0,93,0.00,,,0.00,Rainwise IP-100,2013-08-19 01:32:00,
2013-08-18 21:37:00,61.8,59.0,29.69,South,180,1.2,0.0,93,0.00,,,0.00,Rainwise IP-100,2013-08-19 01:37:00,
2013-08-18 21:42:00,61.6,59.0,29.70,South,180,0.0,2.0,93,0.00,,,0.00,Rainwise IP-100,2013-08-19 01:42:00,
2013-08-18 21:47:00,61.4,59.0,29.70,South,180,0.0,0.0,93,0.00,,,0.00,Rainwise IP-100,2013-08-19 01:47:00,
2013-08-18 21:53:00,61.2,59.0,29.69,WNW,292,2.8,2.8,93,0.00,,,0.00,Rainwise IP-100,2013-08-19 01:53:00,
2013-08-18 21:58:00,61.0,59.0,29.70,WSW,247,1.9,3.0,94,0.00,,,0.00,Rainwise IP-100,2013-08-19 01:58:00,
2013-08-18 22:03:00,61.0,59.0,29.69,WSW,247,0.0,1.0,94,0.00,,,0.00,Rainwise IP-100,2013-08-19 02:03:00,
2013-08-18 22:08:00,60.8,59.0,29.69,WSW,247,0.0,0.0,94,0.00,,,0.00,Rainwise IP-100,2013-08-19 02:08:00,
2013-08-18 22:13:00,60.6,59.0,29.69,WSW,247,0.0,0.0,94,0.00,,,0.00,Rainwise IP-100,2013-08-19 02:13:00,
2013-08-18 22:18:00,60.4,59.0,29.69,WSW,247,0.0,0.0,94,0.00,,,0.00,Rainwise IP-100,2013-08-19 02:18:00,
2013-08-18 22:23:00,60.1,58.0,29.69,WSW,247,0.0,0.0,95,0.00,,,0.00,Rainwise IP-100,2013-08-19 02:23:00,
2013-08-18 22:28:00,59.8,57.0,29.69,WSW,247,0.0,0.0,95,0.00,,,0.00,Rainwise IP-100,2013-08-19 02:28:00,
2013-08-18 22:33:00,59.7,57.0,29.69,WSW,247,0.0,1.0,95,0.00,,,0.00,Rainwise IP-100,2013-08-19 02:33:00,
2013-08-18 22:38:00,59.6,58.0,29.69,WSW,247,0.0,0.0,96,0.00,,,0.00,Rainwise IP-100,2013-08-19 02:38:00,
2013-08-18 22:43:00,59.4,58.0,29.68,WSW,247,0.0,0.0,96,0.00,,,0.00,Rainwise IP-100,2013-08-19 02:43:00,
2013-08-18 22:48:00,59.2,57.0,29.68,WSW,247,0.0,0.0,96,0.00,,,0.00,Rainwise IP-100,2013-08-19 02:48:00,
2013-08-18 22:53:00,59.1,57.0,29.68,WSW,247,0.0,0.0,96,0.00,,,0.00,Rainwise IP-100,2013-08-19 02:53:00,
2013-08-18 22:58:00,59.0,58.0,29.68,WSW,247,0.0,0.0,97,0.00,,,0.00,Rainwise IP-100,2013-08-19 02:58:00,
2013-08-18 23:03:00,58.9,58.0,29.68,WSW,247,0.0,0.0,97,0.00,,,0.00,Rainwise IP-100,2013-08-19 03:03:00,
2013-08-18 23:09:00,58.8,58.0,29.68,WSW,247,0.0,0.0,97,0.00,,,0.00,Rainwise IP-100,2013-08-19 03:09:00,
2013-08-18 23:14:00,58.7,58.0,29.68,West,270,0.0,1.0,97,0.00,,,0.00,Rainwise IP-100,2013-08-19 03:14:00,
2013-08-18 23:19:00,58.6,58.0,29.68,West,270,0.0,0.0,97,0.00,,,0.00,Rainwise IP-100,2013-08-19 03:19:00,
2013-08-18 23:24:00,58.5,58.0,29.68,West,270,0.0,0.0,97,0.00,,,0.00,Rainwise IP-100,2013-08-19 03:24:00,
2013-08-18 23:29:00,58.4,57.0,29.68,West,270,0.0,0.0,97,0.00,,,0.00,Rainwise IP-100,2013-08-19 03:29:00,
2013-08-18 23:34:00,58.2,57.0,29.67,West,270,0.0,0.0,97,0.00,,,0.00,Rainwise IP-100,2013-08-19 03:34:00,
2013-08-18 23:39:00,58.1,57.0,29.68,West,270,0.0,0.0,97,0.00,,,0.00,Rainwise IP-100,2013-08-19 03:39:00,
2013-08-18 23:44:00,58.1,57.0,29.67,West,270,0.0,0.0,98,0.00,,,0.00,Rainwise IP-100,2013-08-19 03:44:00,
2013-08-18 23:49:00,57.9,57.0,29.68,West,270,0.0,1.0,98,0.00,,,0.00,Rainwise IP-100,2013-08-19 03:49:00,
2013-08-18 23:54:00,57.9,57.0,29.67,West,270,0.0,1.0,98,0.00,,,0.00,Rainwise IP-100,2013-08-19 03:54:00,
2013-08-18 23:59:00,57.9,57.0,29.67,West,270,0.0,0.0,98,0.00,,,0.00,Rainwise IP-100,2013-08-19 03:59:00,